Location: Chippewa Lake
(41.0698°N, 81.9010°W)
Time: 11:37:37
(UTC+00:00)

Cosmos 2084 - Pass Details

Date: 28 September 2021
Orbit: 529 x 652 km, 62.8° (Epoch: 20 October)

Event Time Altitude Azimuth Distance (km) Brightness Sun altitude
Exits shadow 10:01:18 29° 239° (WSW) 985 4.1 -15.9°
Maximum altitude 10:03:07 59° 308° (NW) 621 3.3 -15.5°
Drops below altitude 10° 10:07:09 10° 29° (NNE) 1,822 6.5 -14.8°
Sets 10:09:25 0° 33° (NNE) 2,736 7.6 -14.4°
